Regional Weather Roundup
Issued by NWS

Home | Current Version | Previous Version | Graphics & Text | Print | Product List | Glossary On
Versions: 1 2 3 4 5 6 7 8 9 10 11 12 13 14 15 16 17 18 19 20 21 22 23 24 25 26 27 28 29 30 31 32 33 34 35 36 37 38 39 40 41 42 43 44 45 46 47 48 49 50
000
ASUS43 KLOT 200458
RWRIL

ILLINOIS REGIONAL WEATHER ROUNDUP
NATIONAL WEATHER SERVICE CHICAGO/ROMEOVILLE IL
1200 AM CDT SAT SEP 20 2014

NOTE: "FAIR" INDICATES FEW OR NO CLOUDS BELOW 12,000 FEET WITH NO
SIGNIFICANT WEATHER AND/OR OBSTRUCTIONS TO VISIBILITY.

* THESE STATIONS ARE NOT UNDER NWS QUALITY CONTROL. THEY ALSO MAY NOT
  REPORT WEATHER SUCH AS PRECIPITATION OR FOG.

ILZ001-002-007-009-015-016-024-200600-
NORTHWEST ILLINOIS

CITY           SKY/WX    TMP DP  RH WIND       PRES   REMARKS
MOLINE         CLEAR     67  56  67 S10       29.90F
$$

ILZ003-004-008-010-011-017-018-200600-
NORTH CENTRAL ILLINOIS

CITY           SKY/WX    TMP DP  RH WIND       PRES   REMARKS
ROCKFORD       NOT AVBL
$$

ILZ005-006-012>014-019>023-200600-
NORTHEAST ILLINOIS

CITY           SKY/WX    TMP DP  RH WIND       PRES   REMARKS
CHICAGO-OHARE  PTCLDY    65  48  54 S14       29.93F
CHICAGO-MIDWAY PTCLDY    67  50  54 S16G23    29.94F
AURORA         CLEAR     61  49  64 S13       29.94F
WAUKEGAN       CLEAR     63  48  58 S13       29.91F
DUPAGE AIRPORT CLEAR     63  49  60 S14G24    29.93F
WHEELING       CLEAR     66  48  52 S9        29.94F
NORTHERLY ISL    N/A     67  47  48 S17         N/A
$$

LMZ740>746-200600-
SOUTHERN LAKE MICHIGAN

STATION/POSITION SKY/WX   TEMP    WIND        PRES    VSBY  WAVE
                          AIR SEA DIR/SP/G                  HT/PER
                          (F)     (DEG/KT/KT) (MB)    (MI)  (FT/S)
SOUTHERN BUOY              67 63  180/ 21/ 23 1013.4F         3/ 4
WAUKEGAN HARBOR            66     210/ 14/ 18   N/A
HARRISON CRIB              65     180/ 21/ 24   N/A
BURNHAM HARBOR             67     210/ 14/ 16   N/A
CALUMET HARBOR                    180/ 13/ 17 1013.2F
MICHIGAN CITY              64     150/ 14/ 25   N/A
MICHIGAN CITY 6N           63 65  180/ 14/ 19   N/A           2/ 2
ST. JOSEPH                 64 65  160/ 16/ 21   N/A           2/ 3
$$

ILZ025>027-034>036-040-047-049-050-058-095>099-200600-
WEST-CENTRAL ILLINOIS

CITY           SKY/WX    TMP DP  RH WIND       PRES   REMARKS
QUINCY         CLEAR     65  58  78 S9        29.96F
$$

ILZ028>032-037-038-041>044-048-051>054-059>061-200600-
CENTRAL ILLINOIS

CITY           SKY/WX    TMP DP  RH WIND       PRES   REMARKS
PEORIA         NOT AVBL
SPRINGFIELD    CLEAR     64  55  72 S7        30.00F
TAYLORVILLE    NOT AVBL
$$

ILZ033-039-045-046-055>057-062-063-200600-
EAST-CENTRAL ILLINOIS

CITY           SKY/WX    TMP DP  RH WIND       PRES   REMARKS
MATTOON        CLEAR     56  52  86 S5        30.03F
$$

ILZ079-100>102-200600-
SOUTHWEST ILLINOIS

CITY           SKY/WX    TMP DP  RH WIND       PRES   REMARKS
BELLEVILLE     CLEAR     59  59 100 CALM      30.01F
CAHOKIA*       CLEAR     61  58  90 CALM      30.01F
$$

ILZ064>066-069>071-074>076-080>082-084>086-088>090-092>094-200600-
SOUTH-CENTRAL ILLINOIS

CITY           SKY/WX    TMP DP  RH WIND       PRES   REMARKS
CARBONDALE     FOG       57  56  96 CALM      30.04S VSB 3/4
$$

ILZ067-068-072-073-078-083-087-091-200600-
SOUTHEAST ILLINOIS

CITY           SKY/WX    TMP DP  RH WIND       PRES   REMARKS
LAWRENCEVILLE  CLEAR     57  55  93 CALM      30.05F
$$

ABBREVIATIONS USED IN REMARKS
   TC - TEMPERATURE IN CELSIUS
  WCI - WIND CHILL INDEX
   HX - HEAT INDEX
  VSB - VISIBILITY
$$



USA.gov is the U.S. government's official web portal to all federal, state and local government web resources and services.